Regional Weather Roundup
Issued by NWS Sioux Falls, SD

Home | Current Version | Previous Version | Text Only | Print | Product List | Glossary Off
Versions: 1 2 3 4 5 6 7 8 9 10 11 12 13 14 15 16 17 18 19 20 21 22 23 24 25 26 27 28 29 30 31 32 33 34 35 36 37 38 39 40 41 42 43 44 45 46 47 48 49 50

742
ASUS43 KFSD 082310
RWRFSD

WEATHER ROUNDUP FOR SE SOUTH DAKOTA/SW MINNESOTA/NW IOWA
NATIONAL WEATHER SERVICE SIOUX FALLS SD
500 PM CST MON FEB 08 2016

NOTE: "FAIR" INDICATES FEW OR NO CLOUDS BELOW 12,000 FEET WITH NO
SIGNIFICANT WEATHER AND OR OBSTRUCTIONS TO VISIBILITY.


SDZ038>040-050-052>070-090000-
SOUTHEAST SOUTH DAKOTA

CITY           SKY/WX    TMP DP  RH WIND       PRES   REMARKS
BROOKINGS      CLOUDY    21  13  71 N24G33    30.07R WCI   4
CHAMBERLAIN    CLEAR     33  20  59 NW16      30.20F WCI  22
HURON          CLOUDY    31  17  56 N20       30.15S WCI  19
MADISON        FAIR      23  18  80 N21G28    30.09S WCI   8
MITCHELL       CLOUDY    33  18  53 NW21G26   30.16S WCI  21
SIOUX FALLS    MOCLDY    25  14  63 N20       30.09S WCI  11
WINNER         FAIR      35  18  49 NW20      30.21F WCI  24
YANKTON        PTCLDY    32  16  51 NW23G33   30.13S WCI  19
$$

MNZ071-072-080-081-089-090-097-098-090000-
SOUTHWEST MINNESOTA

CITY           SKY/WX    TMP DP  RH WIND       PRES   REMARKS
FAIRMONT       CLOUDY    18   9  68 NW29G37   29.98F VSB 1   WCI  -2
JACKSON        MOCLDY    18   9  68 NW28G37   30.02R WCI  -1
LUVERNE        CLOUDY    23  18  80 N17       30.09R WCI   9
MARSHALL       FLURRIES  16  10  77 N32       30.07F WCI  -5
MONTEVIDEO     PTCLDY    16   9  73 N25G36    30.11S WCI  -3
PIPESTONE      CLOUDY    21  12  68 N18G25    30.06S WCI   6
REDWOOD FALLS  PTCLDY    15   5  64 NW26G37   30.06R WCI  -4
TRACY          CLEAR     17  11  77 N24G33    30.07R WCI  -1
WINDOM         SNOW      16  10  79 NW30      30.03R VSB 1/4 WCI  -4
WORTHINGTON    MOCLDY    18   9  68 NW23      30.06R WCI   0
$$

IAZ001>003-012>014-020>022-031-032-NEZ013-014-SDZ071-090000-
NORTHWEST IOWA

CITY           SKY/WX    TMP DP  RH WIND       PRES   REMARKS
CHEROKEE       PTCLDY    19  14  79 NW15G21   30.08S WCI   5
DENISON        CLOUDY    21  16  79 N22       30.05S WCI   5
ESTHERVILLE    MIX PCPN  16  10  77 NW30G41   30.02S WCI  -4
LE MARS        CLEAR     25  18  74 N16G24    30.11S WCI  12
ORANGE CITY    PTCLDY    21  18  86 N17G26    30.07S WCI   7
SHELDON        FLURRIES  18  16  93 N22       30.06R WCI   0
SIOUX CITY     CLEAR     28  18  66 N29       30.10R WCI  12
SPENCER        MOCLDY    17   9  70 NW23      30.06S WCI  -1
STORM LAKE     FLURRIES  18  12  79 N24G35    30.04F WCI   0
$$

ABBREVIATIONS USED IN REMARKS
   TC - TEMPERATURE IN CELSIUS
  WCI - WIND CHILL INDEX
   HX - HEAT INDEX
  VSB - VISIBILITY





USA.gov is the U.S. government's official web portal to all federal, state and local government web resources and services.